Stündliche Wetter Kysyndy

Heute, 8 Mai, Samstag

Zeit Temperatur Niederschläge Wind Luftdruck Luftfeuchtigkeit
00:00 +13°C° 0 mm 1 m/S 752 mmHg 66%
01:00 +12°C° 0 mm 0 m/S 752 mmHg 66%
02:00 +13°C° 0 mm 1 m/S 752 mmHg 66%
03:00 +13°C° 0 mm 1 m/S 752 mmHg 65%
04:00 +13°C° 0 mm 1 m/S 752 mmHg 65%
05:00 +14°C° 0 mm 1 m/S 752 mmHg 64%
06:00 +15°C° 0 mm 1 m/S 751 mmHg 63%
07:00 +15°C° 0 mm 1 m/S 751 mmHg 62%
08:00 +18°C° 0 mm 1 m/S 751 mmHg 56%
09:00 +20°C° 0 mm 1 m/S 751 mmHg 50%
10:00 +21°C° 0 mm 1 m/S 751 mmHg 44%
11:00 +22°C° 0 mm 1 m/S 751 mmHg 41%
12:00 +21°C° 0 mm 2 m/S 751 mmHg 39%
13:00 +23°C° 0 mm 2 m/S 751 mmHg 36%
14:00 +21°C° 0 mm 2 m/S 751 mmHg 38%
15:00 +21°C° 0 mm 2 m/S 751 mmHg 40%
16:00 +20°C° 0 mm 2 m/S 751 mmHg 42%
17:00 +19°C° 0 mm 2 m/S 751 mmHg 50%
18:00 +17°C° 0 mm 2 m/S 751 mmHg 59%
19:00 +16°C° 0 mm 2 m/S 751 mmHg 67%
20:00 +15°C° 0 mm 2 m/S 751 mmHg 72%
21:00 +13°C° 0 mm 1 m/S 751 mmHg 76%
22:00 +12°C° 0 mm 1 m/S 751 mmHg 80%
23:00 +12°C° 0 mm 1 m/S 751 mmHg 81%

Morgen, 9 Mai, Sonntag

Zeit Temperatur Niederschläge Wind Luftdruck Luftfeuchtigkeit
00:00 +11°C° 0 mm 1 m/S 751 mmHg 82%
01:00 +10°C° 0 mm 0 m/S 751 mmHg 82%
02:00 +10°C° 0 mm 0 m/S 751 mmHg 82%
03:00 +10°C° 0 mm 0 m/S 751 mmHg 82%
04:00 +9°C° 0 mm 0 m/S 751 mmHg 82%
05:00 +11°C° 0 mm 0 m/S 751 mmHg 78%
06:00 +12°C° 0 mm 0 m/S 751 mmHg 73%
07:00 +13°C° 0 mm 0 m/S 751 mmHg 68%
08:00 +16°C° 0 mm 1 m/S 751 mmHg 62%
09:00 +19°C° 0 mm 1 m/S 751 mmHg 56%
10:00 +20°C° 0 mm 2 m/S 751 mmHg 50%
11:00 +21°C° 0 mm 2 m/S 751 mmHg 47%
12:00 +21°C° 0 mm 2 m/S 751 mmHg 43%
13:00 +23°C° 0 mm 2 m/S 751 mmHg 40%
14:00 +23°C° 0 mm 2 m/S 751 mmHg 40%
15:00 +23°C° 0 mm 2 m/S 751 mmHg 40%
16:00 +23°C° 0 mm 2 m/S 751 mmHg 40%
17:00 +22°C° 0 mm 1 m/S 751 mmHg 45%
18:00 +21°C° 0 mm 1 m/S 751 mmHg 51%
19:00 +20°C° 0 mm 1 m/S 751 mmHg 56%
20:00 +18°C° 0 mm 1 m/S 751 mmHg 59%
21:00 +16°C° 0 mm 1 m/S 751 mmHg 61%
22:00 +14°C° 0 mm 1 m/S 752 mmHg 64%
23:00 +14°C° 0 mm 1 m/S 752 mmHg 66%

übermorgen, 10 Mai, Montag

Zeit Temperatur Niederschläge Wind Luftdruck Luftfeuchtigkeit
00:00 +13°C° 0 mm 1 m/S 752 mmHg 67%
01:00 +13°C° 0 mm 1 m/S 752 mmHg 69%
02:00 +12°C° 0 mm 1 m/S 752 mmHg 70%
03:00 +12°C° 0 mm 1 m/S 753 mmHg 70%
04:00 +11°C° 0 mm 1 m/S 753 mmHg 71%
05:00 +13°C° 0 mm 1 m/S 753 mmHg 66%
06:00 +15°C° 0 mm 1 m/S 753 mmHg 61%
07:00 +16°C° 0 mm 1 m/S 754 mmHg 56%
08:00 +19°C° 0 mm 1 m/S 754 mmHg 50%
09:00 +21°C° 0 mm 1 m/S 754 mmHg 44%
10:00 +23°C° 0 mm 2 m/S 754 mmHg 38%
11:00 +24°C° 0 mm 1 m/S 754 mmHg 35%
12:00 +25°C° 0 mm 1 m/S 754 mmHg 32%
13:00 +24°C° 0 mm 0 m/S 754 mmHg 30%
14:00 +25°C° 0 mm 1 m/S 754 mmHg 30%
15:00 +25°C° 0 mm 1 m/S 754 mmHg 31%
16:00 +25°C° 0 mm 2 m/S 754 mmHg 31%
17:00 +24°C° 0 mm 2 m/S 754 mmHg 39%
18:00 +21°C° 0 mm 2 m/S 754 mmHg 46%
19:00 +20°C° 0 mm 2 m/S 754 mmHg 54%
20:00 +20°C° 0 mm 1 m/S 755 mmHg 54%
21:00 +19°C° 0 mm 1 m/S 755 mmHg 55%
22:00 +18°C° 0 mm 1 m/S 755 mmHg 55%
23:00 +16°C° 0 mm 1 m/S 755 mmHg 58%

11 Mai, Dienstag

Zeit Temperatur Niederschläge Wind Luftdruck Luftfeuchtigkeit
00:00 +15°C° 0 mm 1 m/S 756 mmHg 60%
01:00 +14°C° 0 mm 1 m/S 756 mmHg 63%
02:00 +14°C° 0 mm 1 m/S 756 mmHg 64%
03:00 +14°C° 0 mm 1 m/S 756 mmHg 64%
04:00 +12°C° 0 mm 0 m/S 757 mmHg 65%
05:00 +13°C° 0 mm 0 m/S 757 mmHg 63%
06:00 +15°C° 0 mm 0 m/S 757 mmHg 61%
07:00 +16°C° 0 mm 0 m/S 757 mmHg 59%
08:00 +19°C° 0 mm 1 m/S 758 mmHg 55%
09:00 +21°C° 0 mm 1 m/S 758 mmHg 50%
10:00 +23°C° 0 mm 2 m/S 758 mmHg 46%
11:00 +23°C° 0 mm 2 m/S 758 mmHg 45%
12:00 +24°C° 0 mm 2 m/S 758 mmHg 43%
13:00 +25°C° 0 mm 3 m/S 758 mmHg 41%
14:00 +25°C° 0 mm 3 m/S 758 mmHg 42%
15:00 +25°C° 0 mm 3 m/S 758 mmHg 42%
16:00 +25°C° 0 mm 3 m/S 758 mmHg 43%
17:00 +24°C° 0 mm 3 m/S 758 mmHg 51%
18:00 +21°C° 0 mm 3 m/S 758 mmHg 59%
19:00 +20°C° 0 mm 3 m/S 759 mmHg 67%
20:00 +18°C° 0 mm 2 m/S 759 mmHg 71%
21:00 +16°C° 0 mm 2 m/S 759 mmHg 75%
22:00 +15°C° 0 mm 2 m/S 759 mmHg 79%
23:00 +14°C° 0 mm 2 m/S 759 mmHg 80%

12 Mai, Mittwoch

Zeit Temperatur Niederschläge Wind Luftdruck Luftfeuchtigkeit
00:00 +13°C° 0 mm 2 m/S 759 mmHg 81%
01:00 +13°C° 0 mm 1 m/S 759 mmHg 82%
02:00 +12°C° 0 mm 1 m/S 760 mmHg 83%
03:00 +12°C° 0 mm 1 m/S 760 mmHg 83%
04:00 +11°C° 0 mm 1 m/S 760 mmHg 84%
05:00 +13°C° 0 mm 1 m/S 760 mmHg 78%
06:00 +14°C° 0 mm 1 m/S 760 mmHg 73%
07:00 +16°C° 0 mm 1 m/S 760 mmHg 67%
08:00 +17°C° 0 mm 2 m/S 760 mmHg 61%
09:00 +19°C° 0 mm 2 m/S 760 mmHg 54%
10:00 +21°C° 0 mm 2 m/S 760 mmHg 47%
11:00 +23°C° 0 mm 2 m/S 760 mmHg 42%
12:00 +24°C° 0 mm 2 m/S 760 mmHg 37%
13:00 +25°C° 0 mm 3 m/S 759 mmHg 31%
14:00 +25°C° 0 mm 3 m/S 759 mmHg 31%
15:00 +25°C° 0 mm 3 m/S 759 mmHg 31%
16:00 +25°C° 0 mm 4 m/S 759 mmHg 30%
17:00 +22°C° 0 mm 3 m/S 759 mmHg 39%
18:00 +21°C° 0 mm 3 m/S 759 mmHg 47%
19:00 +19°C° 0 mm 3 m/S 759 mmHg 55%
20:00 +18°C° 0 mm 3 m/S 759 mmHg 58%
21:00 +16°C° 0 mm 3 m/S 759 mmHg 62%
22:00 +15°C° 0 mm 2 m/S 759 mmHg 66%
23:00 +15°C° 0 mm 2 m/S 759 mmHg 67%

13 Mai, Donnerstag

Zeit Temperatur Niederschläge Wind Luftdruck Luftfeuchtigkeit
00:00 +14°C° 0 mm 2 m/S 759 mmHg 68%
01:00 +14°C° 0 mm 2 m/S 759 mmHg 69%
02:00 +14°C° 0 mm 2 m/S 759 mmHg 70%
03:00 +13°C° 0 mm 2 m/S 759 mmHg 71%
04:00 +13°C° 0 mm 2 m/S 759 mmHg 72%
05:00 +15°C° 0 mm 1 m/S 759 mmHg 68%
06:00 +16°C° 0 mm 1 m/S 760 mmHg 63%
07:00 +19°C° 0 mm 1 m/S 760 mmHg 59%
08:00 +21°C° 0 mm 1 m/S 760 mmHg 53%
09:00 +23°C° 0 mm 1 m/S 760 mmHg 47%
10:00 +25°C° 0 mm 1 m/S 760 mmHg 41%
11:00 +25°C° 0 mm 2 m/S 759 mmHg 39%
12:00 +26°C° 0 mm 2 m/S 759 mmHg 37%
13:00 +27°C° 0 mm 2 m/S 759 mmHg 35%
14:00 +27°C° 0 mm 2 m/S 759 mmHg 36%
15:00 +27°C° 0 mm 2 m/S 759 mmHg 36%
16:00 +27°C° 0 mm 2 m/S 759 mmHg 36%
17:00 +26°C° 0 mm 2 m/S 759 mmHg 43%
18:00 +24°C° 0 mm 2 m/S 759 mmHg 51%
19:00 +23°C° 0 mm 2 m/S 759 mmHg 58%
20:00 +21°C° 0 mm 2 m/S 759 mmHg 61%
21:00 +20°C° 0 mm 1 m/S 759 mmHg 64%
22:00 +19°C° 0 mm 1 m/S 759 mmHg 66%
23:00 +18°C° 0 mm 1 m/S 759 mmHg 68%
Mehr zeigen

Wir brauchen deine Erlaubnis

Meteoprog und unser Service Anbieter werden persönliche Daten aufbewahren, so wie Cookies, Geräte Bezeichnung oder ähnliche Technologien von deinem Gerät und Prozess, so wie Persönliche Daten Inhalte und Werbungen, genauso wie social Media und den Verkehr zu analysieren.

  • Aufbewahrung und/oder Zugang zu deiner Geräte Informationen.

    Cookies, Geräte Bezeichnung oder andere Informationen, können aufbewahrt oder Zugang zu deinem Gerät erhalten, für den Grund, der oben angegeben wird.

  • Personalisierte Werbung und Inhalte, Messungen, Einblick in das Publikum und Produkt Entwicklung.

    Werbungen und Inhalte können personalisiert werden, basierend auf ein Profil. Mehr Daten können besser personalisierte Werbungen und Inhalte hinzufügen. Werbung und Inhalte können gezeigt und gemessen werden. Einblicke über das Publikum, welche die Werbung gesehen haben und den Inhalt, können abgeleitet werden. So wie Daten können genutzt werden, um es zu verbessern oder die Benutzer Erfahrung zu verbessern das System und die Software.

Wenn du “Ich stimme zu” klickst, erlaubst du uns, die Cookies zu benutzen die Geräte Bezeichnung, den Web oder ähnliche Technologien zu benutzen. Deine Settings, können in deinem Gerät bei deinem Browser geändert werden.

Für den bestimmten Zweck, berechtigten Interessen beruhen darauf, mehr als auf den Inhalt. Du kannst mehr darüber in unseren Privaten und Cookie Politik lesen.